[[{"header":{"parameterUnit":"m.s-1","parameterCategory":1,"la1":30.2991,"la2":30.254,"lo1":-89.0895,"lo2":-89.0444,"dy":0.0017,"dx":0.0017,"nx":28,"ny":28,"refTime":"2024-12-06T03:00:00:Z","depth":0,"parameterNumber":2,"parameterNumberName":"U-component_of_WINDS"},"data":[0,0,0,0,0,0,0,0,0,0,0,0,0,0,0,0,0,0,0,0,0,0,0,0,0,0,0,0,0,0,0,0,0,0,0,0,0,0,0,0,0,0,0,0,0,0,0,0,0,0,0,0,0,0,0,0,0,0,-1.1092,-1.1093,0,-1.1223,-1.1224,-1.1226,-1.1223,-1.1221,-1.1219,-1.1217,-1.1352,-1.1357,-1.1363,0,0,0,0,0,0,0,0,0,0,0,0,0,-1.0839,-1.0843,-1.1092,-1.1093,-1.1095,-1.1223,-1.1224,-1.1226,-1.1223,-1.1221,-1.1219,-1.1217,-1.1351,-1.1357,-1.1363,0,0,0,0,0,0,0,0,0,0,0,0,0,-1.0957,-1.0845,-1.1092,-1.1109,-1.1112,-1.1222,-1.1225,-1.1227,-1.1224,-1.1221,-1.1218,-1.1216,-1.1349,-1.1356,-1.1364,-1.1466,0,0,-1.1388,-1.1391,0,0,0,0,0,0,0,0,-1.095,-1.0966,-1.1105,-1.1108,-1.1111,-1.1204,-1.1185,-1.1307,-1.1224,-1.1181,-1.1217,-1.1214,-1.1305,-1.1316,-1.1347,-1.1472,-1.1478,-1.1389,-1.1394,-1.1397,-1.1399,0,0,0,0,0,0,0,-1.0942,-1.0961,-1.1144,-1.1107,-1.1111,-1.111,-1.1124,-1.1208,-1.1257,-1.1185,-1.1185,-1.12,-1.1306,-1.1339,-1.135,-1.148,-1.1389,-1.1396,-1.14,-1.1403,-1.1696,-1.1699,0,0,0,0,0,0,-1.093,-1.0954,-1.114,-1.1148,-1.1023,-1.1117,-1.1132,-1.1177,-1.1256,-1.1265,-1.1202,-1.12,-1.1327,-1.1341,-1.1355,-1.148,-1.1397,-1.1404,-1.1409,-1.1693,-1.1697,-1.17,0,0,0,0,0,0,-1.0925,-1.0947,-1.1134,-1.1051,-1.1075,-1.1124,-1.1174,-1.1181,-1.1214,-1.1269,-1.1278,-1.1227,-1.1326,-1.1344,-1.1438,-1.1485,-1.1408,-1.1415,-1.1689,-1.1694,-1.1698,-1.1732,0,0,0,0,0,0,-1.0918,-1.0945,-1.0985,-1.1052,-1.1079,-1.1216,-1.1177,-1.1185,-1.1227,-1.1225,-1.1295,-1.1304,-1.1325,-1.1427,-1.1446,-1.1494,-1.1421,-1.1686,-1.1691,-1.1697,-1.1727,-1.1737,-1.1745,0,0,0,0,0,-1.0909,-1.0989,-1.0987,-1.1009,-1.113,-1.1219,-1.1234,-1.1257,-1.1231,-1.1271,-1.1306,-1.1301,-1.1476,-1.1436,-1.1458,-1.151,-1.1683,-1.169,-1.1696,-1.1723,-1.1735,-1.1745,0,0,0,0,0,0,-1.0927,-1.0998,-1.0996,-1.1101,-1.1154,-1.1218,-1.127,-1.1269,-1.1331,-1.1327,-1.1352,-1.1368,-1.1463,-1.1495,-1.145,-1.1612,-1.1576,-1.1588,-1.1588,-1.1601,-1.161,-1.1601,-1.1428,0,0,0,0,0,-1.0942,-1.1009,-1.1068,-1.1154,-1.1181,-1.122,-1.126,-1.1273,-1.1329,-1.1351,-1.1394,-1.1448,-1.1515,-1.1559,-1.1624,-1.173,-1.1746,-1.1776,-1.1785,-1.1793,-1.1803,-1.1862,-1.1877,-1.1722,-1.1722,-1.1722,0,0,-1.0977,-1.1024,-1.1064,-1.1159,-1.1201,-1.127,-1.1239,-1.1313,-1.1364,-1.1363,-1.1455,-1.1488,-1.155,-1.1651,-1.1698,-1.1681,-1.1849,-1.1802,-1.1807,-1.1814,-1.1871,-1.1885,-1.1898,-1.1727,-1.1726,-1.1726,0,0,-1.1074,-1.1116,-1.1193,-1.1236,-1.13,-1.1326,-1.1344,-1.1408,-1.143,-1.1523,-1.1523,-1.1583,-1.1699,-1.1743,-1.1781,-1.1893,-1.1891,-1.1913,-1.1963,-1.2021,-1.2033,-1.2044,-1.2085,-1.2099,-1.1923,-1.1923,-1.1923,0,-1.1109,-1.1212,-1.1232,-1.1307,-1.1348,-1.1349,-1.1427,-1.1467,-1.155,-1.1579,-1.1558,-1.1702,-1.1744,-1.1856,-1.1883,-1.1913,-1.1935,-1.1907,-1.2029,-1.204,-1.2051,-1.2091,-1.2106,-1.1925,-1.1925,-1.1925,-1.1925,0,-1.1251,-1.1323,-1.1377,-1.1456,-1.1504,-1.1579,-1.1611,-1.1657,-1.1665,-1.1692,-1.1787,-1.1836,-1.1912,-1.1938,-1.1947,-1.2051,-1.2039,-1.2024,-1.1988,-1.2068,-1.2106,-1.2121,-1.1929,-1.1928,-1.1927,-1.1927,0,0,-1.1367,-1.1455,-1.1475,-1.1511,-1.1581,-1.1637,-1.1711,-1.1785,-1.1824,-1.1879,-1.1944,-1.204,-1.2026,-1.2069,-1.2082,-1.2131,-1.2218,-1.211,-1.2112,-1.213,-1.2337,-1.235,-1.2367,-1.2216,-1.2219,-1.2221,-1.2333,0,-1.1473,-1.1607,-1.1627,-1.1745,-1.1812,-1.1812,-1.1877,-1.1927,-1.1954,-1.2015,-1.2044,-1.2113,-1.2088,-1.2114,-1.2163,-1.2197,-1.2261,-1.2189,-1.2277,-1.228,-1.2264,-1.2387,-1.2401,-1.2504,-1.2347,-1.235,-1.2352,0,-1.1616,-1.1675,-1.18,-1.1861,-1.1889,-1.1948,-1.2016,-1.2073,-1.213,-1.2146,-1.2193,-1.2199,-1.2277,-1.2236,-1.2344,-1.2295,-1.2331,-1.2353,-1.2357,-1.2369,-1.2322,-1.2403,-1.2537,-1.2554,-1.2375,-1.2373,-1.2371,0,-1.1689,-1.18,-1.189,-1.192,-1.1993,-1.2034,-1.2066,-1.2119,-1.2162,-1.2221,-1.2249,-1.2316,-1.2353,-1.2405,-1.243,-1.2397,-1.2536,-1.2497,-1.2553,-1.2552,-1.2584,-1.2582,-1.2728,-1.2604,-1.2604,-1.2603,-1.2603,0,-1.1807,-1.1884,-1.1924,-1.1979,-1.2065,-1.2086,-1.217,-1.2201,-1.2248,-1.2309,-1.2312,-1.237,-1.2397,-1.2459,-1.2478,-1.2565,-1.2581,-1.2597,-1.2601,-1.2598,-1.2596,-1.2624,-1.2618,-1.2607,-1.2607,-1.2606,-1.2605,0,-1.1905,-1.1935,-1.2032,-1.2092,-1.2109,-1.217,-1.2221,-1.2275,-1.23,-1.2377,-1.2397,-1.2437,-1.2509,-1.2538,-1.2626,-1.2639,-1.2739,-1.2737,-1.2721,-1.2723,-1.2778,-1.2773,-1.2948,-1.2973,-1.283,-1.2832,-1.2833,0,-1.198,-1.2039,-1.2105,-1.2146,-1.218,-1.2245,-1.2288,-1.2311,-1.2356,-1.2423,-1.2469,-1.254,-1.2599,-1.2714,-1.2752,-1.2819,-1.282,-1.2876,-1.283,-1.2825,-1.2823,-1.282,-1.2826,-1.2886,-1.2887,-1.2889,-1.289,0,-1.211,-1.2121,-1.2183,-1.225,-1.2301,-1.2355,-1.2407,-1.2441,-1.2471,-1.2521,-1.2594,-1.264,-1.2729,-1.2801,-1.287,-1.2903,-1.2902,-1.2903,-1.292,-1.2919,-1.2907,-1.2916,-1.2747,-1.29,-1.2899,-1.2898,-1.2898,-1.2897,-1.22,-1.2252,-1.2307,-1.2376,-1.2417,-1.2466,-1.2519,-1.2551,-1.2613,-1.2688,-1.2696,-1.2776,-1.2829,-1.2922,-1.2957,-1.3019,-1.3004,-1.3028,-1.3035,-1.3041,-1.3045,-1.2895,-1.3031,-1.3031,-1.3031,-1.3031,-1.303,0,-1.2331,-1.2366,-1.2429,-1.2502,-1.2556,-1.2549,-1.2606,-1.2652,-1.2721,-1.2771,-1.2829,-1.2913,-1.2982,-1.3024,-1.3093,-1.3134,-1.3136,-1.3152,-1.315,-1.3158,-1.3054,-1.3033,-1.315,-1.315,-1.315,-1.315,-1.315,-1.315,-1.2406,-1.2495,-1.2513,-1.2622,-1.2656,-1.2734,-1.2767,-1.2812,-1.2852,-1.2946,-1.3003,-1.3029,-1.3076,-1.3148,-1.3211,-1.3221,-1.3247,-1.3265,-1.3275,-1.3177,-1.3165,-1.3154,-1.3135,-1.327,-1.327,-1.3374,-1.3375,-1.3376]},{"header":{"parameterUnit":"m.s-1","parameterCategory":1,"la1":30.2991,"la2":30.254,"lo1":-89.0895,"lo2":-89.0444,"dy":0.0017,"dx":0.0017,"nx":28,"ny":28,"refTime":"2024-12-06T03:00:00:Z","depth":0,"parameterNumber":3,"parameterNumberName":"V-component_of_WINDS"},"data":[0,0,0,0,0,0,0,0,0,0,0,0,0,0,0,0,0,0,0,0,0,0,0,0,0,0,0,0,0,0,0,0,0,0,0,0,0,0,0,0,0,0,0,0,0,0,0,0,0,0,0,0,0,0,0,0,0,0,-7.2595,-7.2596,0,-7.274,-7.2742,-7.2743,-7.2663,-7.266,-7.2656,-7.2652,-7.2794,-7.2801,-7.2809,0,0,0,0,0,0,0,0,0,0,0,0,0,-7.2241,-7.2248,-7.2595,-7.2597,-7.2598,-7.274,-7.2742,-7.2744,-7.2664,-7.2659,-7.2655,-7.265,-7.2792,-7.28,-7.2809,0,0,0,0,0,0,0,0,0,0,0,0,0,-7.2391,-7.2251,-7.2594,-7.2576,-7.2576,-7.2739,-7.2742,-7.2744,-7.2665,-7.2659,-7.2653,-7.2648,-7.2789,-7.28,-7.2811,-7.2999,0,0,-7.2845,-7.285,0,0,0,0,0,0,0,0,-7.2383,-7.2404,-7.2577,-7.2577,-7.2578,-7.2678,-7.2669,-7.2829,-7.2667,-7.2631,-7.2652,-7.2645,-7.276,-7.2773,-7.2813,-7.3005,-7.3012,-7.2846,-7.2853,-7.2858,-7.2861,0,0,0,0,0,0,0,-7.2373,-7.2398,-7.2652,-7.2579,-7.258,-7.2558,-7.2573,-7.2699,-7.2727,-7.2634,-7.2628,-7.2647,-7.2759,-7.2802,-7.2816,-7.3014,-7.2846,-7.2856,-7.2862,-7.2867,-7.3366,-7.3372,0,0,0,0,0,0,-7.2364,-7.239,-7.2647,-7.2656,-7.2464,-7.2569,-7.2586,-7.2651,-7.2725,-7.2731,-7.2652,-7.2643,-7.2786,-7.2803,-7.282,-7.3045,-7.2857,-7.2868,-7.2874,-7.336,-7.3368,-7.3375,0,0,0,0,0,0,-7.2357,-7.2388,-7.2641,-7.2522,-7.2552,-7.2582,-7.2656,-7.2657,-7.2701,-7.2739,-7.2743,-7.2692,-7.2782,-7.2805,-7.2955,-7.3049,-7.2873,-7.2883,-7.3352,-7.3362,-7.3371,-7.3497,0,0,0,0,0,0,-7.2347,-7.2386,-7.246,-7.2524,-7.2559,-7.2777,-7.2662,-7.2665,-7.2721,-7.2711,-7.2778,-7.2783,-7.2779,-7.2939,-7.2966,-7.3061,-7.2892,-7.3344,-7.3357,-7.3368,-7.3485,-7.351,-7.3532,0,0,0,0,0,-7.2335,-7.2488,-7.2464,-7.2495,-7.2652,-7.2782,-7.2802,-7.2796,-7.2729,-7.2802,-7.2826,-7.2781,-7.3034,-7.2955,-7.2985,-7.3085,-7.3338,-7.3353,-7.3367,-7.3474,-7.3505,-7.3531,0,0,0,0,0,0,-7.2432,-7.2496,-7.247,-7.2649,-7.2711,-7.2768,-7.2861,-7.2829,-7.291,-7.2896,-7.2884,-7.29,-7.3057,-7.3085,-7.2996,-7.327,-7.3175,-7.3197,-7.3246,-7.3276,-7.3299,-7.3289,-7.2901,0,0,0,0,0,-7.2475,-7.2577,-7.2627,-7.2779,-7.2812,-7.2832,-7.2888,-7.2878,-7.2941,-7.2966,-7.3001,-7.3062,-7.3155,-7.3217,-7.3305,-7.3488,-7.3501,-7.3571,-7.3595,-7.3614,-7.3633,-7.3731,-7.3762,-7.3423,-7.3423,-7.3423,0,0,-7.2563,-7.2611,-7.2676,-7.28,-7.2847,-7.2952,-7.2854,-7.2968,-7.3045,-7.2983,-7.3128,-7.3156,-7.3222,-7.339,-7.3466,-7.3419,-7.3729,-7.3633,-7.3648,-7.3656,-7.3749,-7.3781,-7.381,-7.3433,-7.3431,-7.343,0,0,-7.2777,-7.2824,-7.2957,-7.3006,-7.3079,-7.3091,-7.3123,-7.3185,-7.3202,-7.3348,-7.3303,-7.3392,-7.3554,-7.3603,-7.3649,-7.3882,-7.3842,-7.391,-7.4033,-7.4129,-7.4156,-7.4179,-7.4262,-7.4292,-7.3929,-7.3929,-7.3929,0,-7.2877,-7.3036,-7.3028,-7.3147,-7.3202,-7.3153,-7.3285,-7.3333,-7.343,-7.3468,-7.3415,-7.3616,-7.3657,-7.3836,-7.3893,-7.3932,-7.3966,-7.3903,-7.4153,-7.4176,-7.4198,-7.4277,-7.4308,-7.3937,-7.3936,-7.3935,-7.3934,0,-7.3155,-7.3265,-7.3362,-7.346,-7.3526,-7.3651,-7.3661,-7.3728,-7.3712,-7.3729,-7.3877,-7.3925,-7.4021,-7.4063,-7.4048,-7.4239,-7.4208,-7.4154,-7.4058,-7.4239,-7.4312,-7.4342,-7.3948,-7.3945,-7.3943,-7.3941,0,0,-7.3435,-7.3527,-7.3563,-7.3607,-7.3683,-7.3767,-7.3888,-7.3985,-7.4043,-7.4111,-7.4212,-7.4349,-7.43,-7.4352,-7.4342,-7.4426,-7.4607,-7.4362,-7.4363,-7.4405,-7.4819,-7.486,-7.4895,-7.458,-7.4586,-7.4591,-7.4814,0,-7.3655,-7.3871,-7.3868,-7.4067,-7.4167,-7.4121,-7.4227,-7.4284,-7.4302,-7.4388,-7.4407,-7.4505,-7.4432,-7.4464,-7.4545,-7.4568,-7.4689,-7.4551,-7.4673,-7.4677,-7.4658,-7.4933,-7.4977,-7.5185,-7.4842,-7.4847,-7.4851,0,-7.3941,-7.4021,-7.4231,-7.4292,-7.4334,-7.443,-7.4517,-7.4601,-7.4664,-7.4671,-7.473,-7.4706,-7.4827,-7.4728,-7.4894,-7.48,-7.4849,-7.4867,-7.4875,-7.4886,-7.4775,-7.4952,-7.5251,-7.5282,-7.4896,-7.4892,-7.4889,0,-7.4124,-7.4284,-7.4431,-7.4469,-7.4544,-7.4612,-7.4646,-7.4703,-7.4761,-7.4837,-7.4874,-7.4962,-7.501,-7.5078,-7.5077,-7.5005,-7.5245,-7.5146,-7.5253,-7.5253,-7.5306,-7.5303,-7.5617,-7.5337,-7.5337,-7.5336,-7.5336,0,-7.4371,-7.4501,-7.4514,-7.4604,-7.4748,-7.4741,-7.4883,-7.491,-7.4961,-7.5054,-7.5018,-7.5105,-7.5099,-7.5187,-7.5187,-7.5324,-7.5345,-7.5353,-7.5352,-7.5357,-7.5356,-7.5389,-7.5375,-7.5345,-7.5343,-7.5341,-7.534,0,-7.4601,-7.4615,-7.4771,-7.483,-7.4848,-7.4951,-7.5,-7.5084,-7.5099,-7.5217,-7.5244,-7.5266,-7.5368,-7.5374,-7.549,-7.549,-7.5656,-7.5639,-7.5636,-7.5633,-7.574,-7.573,-7.6087,-7.6134,-7.5823,-7.5826,-7.5829,0,-7.4757,-7.4857,-7.4926,-7.4987,-7.5026,-7.5124,-7.5183,-7.5179,-7.5242,-7.5321,-7.5396,-7.5494,-7.5572,-7.5735,-7.5761,-7.5849,-7.5833,-7.5952,-7.5846,-7.5848,-7.5835,-7.5829,-7.5839,-7.5973,-7.5976,-7.5979,-7.5981,0,-7.5033,-7.5036,-7.5124,-7.5215,-7.5288,-7.5359,-7.5425,-7.5476,-7.5479,-7.5552,-7.5656,-7.5717,-7.5836,-7.5934,-7.602,-7.6051,-7.6017,-7.6014,-7.6044,-7.6051,-7.6045,-7.605,-7.5693,-7.6006,-7.6004,-7.6002,-7.6001,-7.6,-7.5232,-7.5318,-7.5381,-7.548,-7.5529,-7.5592,-7.5674,-7.57,-7.5788,-7.5886,-7.5878,-7.5993,-7.6051,-7.6164,-7.6202,-7.6291,-7.625,-7.6293,-7.6304,-7.6314,-7.6326,-7.6031,-7.6306,-7.6305,-7.6305,-7.6304,-7.6304,0,-7.5506,-7.5544,-7.5636,-7.573,-7.5808,-7.5771,-7.5841,-7.5908,-7.6011,-7.6069,-7.6148,-7.6267,-7.6361,-7.6394,-7.6484,-7.6549,-7.6535,-7.6573,-7.6568,-7.6576,-7.6357,-7.6323,-7.6582,-7.6582,-7.6582,-7.6582,-7.6582,-7.6582,-7.5658,-7.5802,-7.5811,-7.5978,-7.6014,-7.6129,-7.6173,-7.6229,-7.6276,-7.6412,-7.6491,-7.6512,-7.6559,-7.6653,-7.6737,-7.6744,-7.6779,-7.6824,-7.6824,-7.6619,-7.6591,-7.6564,-7.6532,-7.6831,-7.6832,-7.7035,-7.7037,-7.7038]}]]